Time[GMT],current_u[cm/s](10m),current_v[cm/s](10m),current_u[cm/s](14m),current_v[cm/s](14m),current_u[cm/s](18m),current_v[cm/s](18m),current_u[cm/s](22m),current_v[cm/s](22m),current_u[cm/s](26m),current_v[cm/s](26m),current_u[cm/s](30m),current_v[cm/s](30m),current_u[cm/s](34m),current_v[cm/s](34m),current_u[cm/s](38m),current_v[cm/s](38m),current_u[cm/s](42m),current_v[cm/s](42m),current_u[cm/s](46m),current_v[cm/s](46m),current_u[cm/s](50m),current_v[cm/s](50m),current_u[cm/s](54m),current_v[cm/s](54m),current_u[cm/s](58m),current_v[cm/s](58m)
2019-06-01 02:00,14.21,-27.17,15.71,-32.46,6.66,-26.37,-2.57,-11.02,-3.46,0.95,-4.77,-2.30,-5.98,-4.79,-8.36,-6.35,-12.18,-7.15,-13.61,-5.25,-14.31,-3.37,-9.65,-1.83,-2.97,-2.85
2019-06-01 03:00,8.58,-28.97,9.84,-30.19,2.31,-20.08,2.86,-1.83,5.93,4.57,2.66,2.46,-1.26,3.19,-7.19,4.51,-9.35,6.01,-7.36,7.88,-5.61,9.48,-5.82,7.15,-0.85,0.09
2019-06-01 04:00,12.55,-34.96,9.91,-26.14,9.95,-11.44,14.38,-1.58,14.01,0.60,9.98,-0.57,4.76,1.16,1.46,5.04,-0.50,5.04,-4.52,7.70,-4.05,10.62,-0.34,7.56,4.45,-1.20
2019-06-01 05:00,9.97,-34.60,8.12,-24.85,16.25,-10.60,19.91,-8.81,17.22,-5.28,15.56,-2.51,11.26,1.22,10.04,3.48,8.29,6.22,6.88,9.58,8.19,6.20,10.66,-0.80,12.22,-4.74
2019-06-01 06:00,8.02,-19.39,11.22,-8.41,20.03,2.50,19.64,1.98,19.21,5.59,18.87,9.23,16.22,11.42,15.37,13.47,13.08,15.87,11.06,16.06,9.48,15.02,11.25,13.01,9.43,7.35
2019-06-01 07:00,1.90,-16.98,9.23,-6.35,19.88,0.70,20.03,0.12,19.90,2.98,19.18,7.65,17.31,7.68,14.85,10.75,11.17,11.74,9.24,10.82,8.53,10.01,8.51,10.83,5.88,9.83
2019-06-01 08:00,2.33,-16.66,3.74,-11.42,13.17,-5.62,18.92,-3.90,17.29,-1.64,15.39,-0.69,16.64,0.05,12.56,0.63,9.49,1.27,9.53,2.31,6.83,2.32,4.85,7.07,2.50,12.45
2019-06-01 09:00,-6.99,-14.26,-4.85,-11.00,3.43,-6.33,15.85,-5.95,15.94,-5.51,13.07,-3.68,11.22,-2.52,10.70,-2.14,10.20,-0.62,7.69,-0.14,6.46,0.98,4.71,3.31,2.72,8.89
2019-06-01 10:00,-17.78,-0.04,-18.53,5.55,-12.48,-0.92,-1.17,-6.52,8.03,-7.70,5.25,-6.58,1.92,-5.70,1.46,-5.51,1.56,-4.35,1.45,-3.55,0.05,-3.71,0.01,-0.82,1.06,2.66
2019-06-01 11:00,-13.02,1.52,-10.70,12.69,-4.00,4.94,1.13,-8.18,8.17,-16.05,4.26,-15.73,1.68,-13.42,-0.18,-10.29,1.51,-9.63,3.31,-10.19,2.24,-9.65,3.10,-7.04,0.73,-1.98
2019-06-01 12:00,-8.91,-1.53,-3.67,0.58,-7.33,-6.70,-4.30,-17.38,2.45,-22.21,-1.39,-20.95,-5.89,-16.86,-6.83,-13.70,-6.32,-13.67,-7.77,-13.64,-7.34,-11.35,-7.66,-9.78,-9.67,-7.62
2019-06-01 13:00,-5.46,1.87,1.27,-0.90,-2.24,-8.35,-6.60,-14.16,-8.06,-14.13,-8.42,-10.81,-9.36,-9.61,-11.52,-11.21,-11.90,-10.18,-12.57,-8.39,-9.26,-5.65,-8.26,-0.84,-9.65,1.69
2019-06-01 14:00,8.15,-1.88,12.60,-6.60,6.62,-12.94,0.07,-15.91,-0.96,-12.04,-3.06,-10.74,-5.17,-12.12,-6.93,-7.83,-6.85,-8.12,-8.71,-8.92,-10.37,-8.12,-6.66,-6.52,-2.86,-4.06
2019-06-01 15:00,18.15,-8.03,23.32,-11.94,12.04,-15.44,4.14,-12.15,0.95,-9.06,-3.14,-8.07,-5.74,-9.58,-4.93,-8.34,-9.13,-8.51,-11.32,-6.09,-8.68,-1.98,-2.35,-1.66,0.01,0.73
2019-06-01 16:00,22.85,-25.82,22.53,-24.97,10.65,-17.98,7.02,-10.14,4.85,-7.41,2.32,-6.83,0.70,-3.43,-1.82,-3.27,-6.06,-4.08,-6.98,-2.15,-3.45,0.54,1.80,1.41,5.87,2.07
2019-06-01 17:00,19.77,-21.98,21.74,-25.91,14.73,-18.97,8.43,-9.98,6.15,-4.48,4.17,-3.66,3.16,-0.61,1.57,0.31,-3.47,2.19,-3.71,5.02,0.18,6.77,3.44,7.32,3.59,7.57
2019-06-01 18:00,23.20,-26.35,24.01,-29.03,21.07,-22.98,14.41,-13.05,13.19,-4.89,9.29,-3.44,7.05,-1.24,6.51,1.20,2.20,4.20,2.90,7.80,5.75,8.76,6.98,8.05,7.30,9.17
2019-06-01 19:00,21.42,-25.47,20.05,-28.11,24.37,-28.42,22.44,-21.89,13.92,-10.39,11.78,-3.09,11.93,2.22,10.07,3.38,9.67,6.07,11.35,9.10,10.95,8.27,11.46,6.34,12.04,4.53
2019-06-01 20:00,19.94,-19.87,17.49,-20.41,22.86,-24.27,24.46,-20.95,21.44,-11.09,18.56,-2.13,14.00,-0.13,9.29,2.04,9.93,1.18,10.39,4.92,8.73,5.72,8.78,1.60,7.56,-1.21
2019-06-01 21:00,12.33,-20.84,9.30,-22.26,12.30,-25.40,13.44,-22.31,11.39,-12.19,8.41,-4.81,4.97,-1.58,-0.16,-0.56,-0.08,0.29,0.56,1.39,-1.02,0.35,-0.27,-1.73,-1.56,-1.14
2019-06-01 22:00,7.62,-18.67,10.70,-20.14,8.64,-24.09,6.08,-28.49,5.40,-21.22,7.04,-12.93,3.13,-9.10,-1.77,-7.40,-4.15,-6.99,-1.71,-6.45,-1.13,-5.89,-2.54,-7.60,-4.95,-5.14
2019-06-01 23:00,14.19,-18.49,4.18,-24.03,-1.24,-30.94,-1.18,-26.07,2.74,-16.24,-1.19,-10.76,-7.20,-9.14,-11.25,-7.94,-11.36,-6.72,-8.94,-6.50,-5.64,-4.49,-7.28,-5.34,-9.17,-3.66
2019-06-02 00:00,-0.16,-17.42,-15.78,-13.48,-18.23,-15.57,-13.42,-17.72,-14.77,-13.00,-16.40,-9.19,-17.02,-6.05,-17.67,-4.77,-19.81,-4.10,-20.26,-3.18,-16.98,-3.45,-15.80,-4.79,-14.78,-4.73
2019-06-02 01:00,-4.89,-20.63,-5.40,-17.15,-6.03,-13.18,-5.80,-10.94,-8.04,-9.88,-7.46,-10.14,-10.88,-8.15,-12.56,-6.11,-12.44,-5.36,-11.39,-6.22,-7.53,-6.75,-6.16,-3.70,-6.00,-3.14
2019-06-02 02:00,-8.51,-23.76,-10.93,-20.47,-8.82,-17.12,-8.25,-17.70,-5.96,-13.06,-9.79,-15.41,-11.25,-13.01,-13.58,-11.24,-14.40,-11.25,-13.30,-11.89,-10.26,-11.29,-8.08,-7.41,-7.31,-6.79
2019-06-02 03:00,-3.58,-25.98,-4.46,-20.31,-3.15,-15.10,0.64,-13.38,6.12,-11.83,4.56,-11.00,-1.25,-10.16,-4.93,-10.30,-4.54,-8.65,-7.01,-7.54,-6.60,-5.16,-2.88,-2.00,0.81,-2.27
2019-06-02 04:00,-8.00,-27.25,-5.79,-22.32,-4.01,-12.23,1.12,-11.29,3.08,-12.84,2.43,-11.56,1.67,-6.70,-0.89,-6.03,-0.30,-5.15,-1.76,-2.74,-3.75,-1.09,-0.12,1.62,4.82,0.55
2019-06-02 05:00,-4.62,-19.32,-8.54,-18.18,0.63,-7.07,3.76,-7.18,7.79,-9.11,8.17,-8.60,7.36,-5.92,5.13,-4.54,2.10,-4.82,1.56,-2.38,-0.24,1.28,1.75,1.60,2.13,-1.81
2019-06-02 06:00,-1.98,-22.24,-4.09,-18.97,5.26,-8.54,5.25,-8.13,8.15,-11.29,11.06,-8.97,10.86,-7.06,8.06,-6.25,4.87,-3.16,4.66,-1.98,3.10,2.37,3.70,2.43,5.62,0.66
2019-06-02 07:00,-4.95,-21.99,-4.91,-21.36,4.75,-12.09,7.02,-8.18,9.18,-8.12,13.97,-5.10,14.33,-3.35,10.96,-3.52,9.99,-1.39,7.19,0.97,5.26,2.01,5.98,4.79,5.69,4.71
2019-06-02 08:00,-7.01,-18.50,-7.21,-19.69,2.36,-13.24,7.89,-9.91,9.48,-10.84,16.11,-7.74,16.37,-5.60,12.95,-3.20,8.50,-2.82,6.28,-1.44,4.29,1.76,3.50,1.65,2.69,-0.01
2019-06-02 09:00,-15.57,-21.70,-6.04,-17.84,6.24,-13.45,10.36,-9.47,5.93,-11.47,7.40,-12.73,10.06,-12.24,4.51,-10.81,1.05,-9.86,-1.30,-6.45,-1.43,-4.00,1.25,-0.81,-2.35,1.45
2019-06-02 10:00,-19.25,-20.70,-11.76,-18.52,2.27,-17.19,10.32,-15.17,6.33,-14.57,-0.61,-17.64,-2.80,-17.19,-1.63,-15.74,-2.40,-12.84,-4.00,-9.12,-2.73,-4.14,-3.00,-0.79,-6.53,2.41
2019-06-02 11:00,-20.25,-16.52,-10.48,-14.77,-0.72,-15.29,2.11,-16.20,-3.82,-13.73,-9.88,-15.85,-10.52,-16.95,-13.07,-15.14,-11.42,-13.15,-9.77,-9.20,-8.94,-4.12,-7.39,-2.16,-8.39,1.61
2019-06-02 12:00,-6.47,-18.98,-0.03,-19.87,0.58,-21.77,-1.61,-24.42,-10.74,-22.39,-13.95,-21.58,-15.84,-23.42,-15.36,-21.74,-13.61,-21.28,-14.60,-16.79,-12.79,-12.27,-10.01,-9.88,-10.17,-6.93
2019-06-02 13:00,1.57,-19.24,5.88,-22.24,0.76,-26.38,-7.84,-23.58,-17.41,-18.67,-22.37,-19.87,-20.45,-17.71,-18.40,-18.83,-18.30,-17.25,-20.29,-12.08,-16.79,-8.47,-11.95,-6.05,-8.01,-5.32
2019-06-02 14:00,0.44,-23.98,1.06,-26.72,-1.98,-29.69,-12.13,-27.30,-17.29,-20.70,-20.96,-16.19,-21.88,-16.64,-21.08,-20.05,-22.79,-17.50,-21.85,-12.81,-18.52,-9.76,-13.69,-8.48,-6.02,-8.93
2019-06-02 15:00,3.74,-29.42,-2.04,-34.16,-11.76,-29.07,-17.29,-21.84,-20.32,-16.64,-20.68,-11.36,-22.85,-7.48,-24.65,-6.51,-25.62,-7.18,-22.02,-5.51,-18.91,-2.41,-12.75,-2.64,-6.73,-3.12
2019-06-02 16:00,6.22,-31.76,-1.49,-33.91,-10.20,-24.83,-14.16,-18.84,-14.30,-15.16,-11.92,-10.08,-11.27,-4.32,-9.36,1.77,-7.02,2.28,-4.87,1.61,-2.13,2.96,-0.64,2.83,1.71,0.97
2019-06-02 17:00,12.07,-35.91,0.05,-33.08,-0.04,-22.56,-1.91,-18.61,-2.55,-14.22,-1.00,-7.19,0.32,-4.36,0.12,-0.07,-2.76,1.44,-4.84,1.10,-3.28,2.24,-1.59,2.48,1.57,0.72
2019-06-02 18:00,12.22,-30.59,1.36,-29.43,-1.01,-18.88,-0.51,-12.96,-1.49,-10.43,-2.49,-4.28,-0.69,0.65,-0.13,5.97,1.53,9.09,0.83,8.60,0.26,6.07,1.78,4.61,5.07,1.96
2019-06-02 19:00,14.47,-26.17,3.11,-25.86,-0.08,-17.30,7.88,-9.09,7.62,-7.30,8.40,-3.99,10.75,-0.37,10.18,4.14,11.58,6.68,11.36,6.72,9.06,7.98,6.11,7.82,7.07,6.52
2019-06-02 20:00,5.07,-16.45,-0.71,-17.67,-6.61,-15.71,5.12,-7.65,10.14,-5.90,9.32,-5.92,8.22,-1.76,8.68,3.54,8.90,5.87,8.25,6.73,6.57,7.63,6.38,7.17,6.40,5.52
2019-06-02 21:00,-6.10,-21.16,-2.75,-20.90,-9.93,-19.59,-1.84,-13.00,6.89,-10.80,5.26,-10.51,7.34,-8.20,8.04,-4.19,9.40,-0.72,9.56,1.39,7.23,0.05,4.16,-0.87,2.81,-1.64
2019-06-02 22:00,-20.38,-14.49,-21.33,-17.53,-21.59,-19.67,-11.31,-13.95,1.09,-12.33,0.29,-12.85,1.24,-13.32,3.51,-10.55,4.11,-6.57,4.00,-5.36,2.45,-5.76,-1.20,-4.87,0.51,-5.45
2019-06-02 23:00,-17.40,-24.97,-28.25,-24.22,-23.37,-19.21,-11.04,-21.23,-5.61,-23.00,-3.59,-23.60,-1.53,-23.16,-0.98,-20.95,1.50,-19.36,1.99,-16.13,1.58,-14.99,-0.30,-13.73,-3.63,-11.72
2019-06-03 00:00,-25.05,-16.76,-29.46,-9.85,-23.15,-4.36,-18.25,-8.03,-16.19,-13.48,-17.88,-14.55,-17.91,-13.63,-14.59,-13.68,-12.74,-14.43,-10.60,-14.28,-10.34,-10.18,-11.87,-8.72,-12.64,-6.96
2019-06-03 01:00,-7.38,-19.43,-15.42,-14.83,-16.71,-5.66,-14.25,-8.32,-13.41,-16.58,-13.57,-20.65,-14.03,-21.29,-13.24,-18.39,-11.36,-19.24,-7.65,-17.64,-6.71,-13.36,-10.42,-11.44,-11.33,-8.79
2019-06-03 02:00,-9.78,-34.23,-17.75,-26.00,-16.96,-17.62,-19.79,-22.19,-20.95,-24.05,-19.91,-20.16,-19.59,-17.07,-22.46,-19.90,-22.46,-21.86,-19.70,-21.34,-17.08,-17.55,-15.22,-15.19,-12.97,-11.60
2019-06-03 03:00,2.86,-37.83,-9.01,-33.62,-8.04,-24.36,-13.55,-20.34,-18.86,-22.57,-19.79,-18.26,-19.70,-17.82,-23.47,-16.86,-24.60,-14.57,-22.03,-15.65,-17.77,-16.90,-16.38,-15.50,-13.10,-12.25
2019-06-03 04:00,10.28,-43.62,-3.19,-37.25,-1.91,-26.05,-3.86,-19.84,-14.72,-16.71,-16.79,-15.92,-13.87,-11.32,-11.21,-10.41,-14.80,-10.53,-20.47,-7.06,-21.45,-6.91,-13.08,-2.94,-10.71,-6.04
2019-06-03 05:00,3.41,-44.61,-8.82,-35.12,-3.71,-23.53,-8.62,-15.93,-12.72,-12.15,-15.87,-11.95,-11.96,-6.78,-9.26,-6.07,-10.82,-5.65,-9.29,0.34,-3.34,2.84,-2.93,1.71,-3.03,0.13
2019-06-03 06:00,-0.56,-37.80,-4.86,-26.62,4.37,-18.50,-0.06,-9.95,-3.82,-6.28,-6.33,-5.40,-2.33,-0.20,-0.81,2.27,-2.69,3.12,1.59,6.11,5.61,5.00,6.28,3.63,8.38,2.73
2019-06-03 07:00,-1.79,-34.71,-2.80,-24.63,3.44,-12.23,2.15,-6.57,0.77,-3.31,-2.83,-0.64,-0.57,2.95,4.26,2.68,2.51,4.59,0.13,6.96,2.47,7.89,4.92,7.61,7.06,7.35
2019-06-03 08:00,-5.04,-27.91,-2.19,-17.54,2.80,-10.22,0.93,-4.31,-0.26,0.97,-2.76,4.96,1.61,2.91,2.92,3.05,1.61,6.84,3.56,11.59,6.69,11.49,8.19,8.16,10.19,6.83
2019-06-03 09:00,-11.72,-27.30,-12.25,-20.20,0.49,-15.18,0.70,-12.85,0.15,-6.06,0.92,-1.52,3.81,-1.89,7.29,-0.97,8.97,3.61,11.01,5.70,11.16,3.57,11.47,0.03,8.52,-2.51
2019-06-03 10:00,-21.44,-19.84,-30.90,-13.02,-12.50,-11.79,-5.92,-12.43,-5.69,-6.26,-3.84,-1.53,-4.06,0.89,-1.31,-1.69,2.30,0.30,4.36,0.32,3.25,-3.28,-0.67,-4.52,-4.08,-3.35
2019-06-03 11:00,-29.37,-12.93,-29.72,-8.89,-16.42,-13.03,-13.94,-11.44,-13.05,-7.38,-12.61,-3.54,-8.73,-1.79,-6.99,-4.85,-4.87,-3.87,-3.96,-3.42,-6.12,-6.58,-9.33,-5.78,-10.21,-3.63
2019-06-03 12:00,-23.64,-20.52,-24.24,-19.44,-18.17,-19.70,-15.91,-14.96,-17.96,-10.33,-19.33,-11.00,-17.20,-12.82,-15.14,-15.90,-12.30,-14.52,-8.58,-11.37,-8.58,-12.92,-10.07,-12.38,-11.38,-9.01
2019-06-03 13:00,-12.21,-17.19,-21.87,-13.12,-18.62,-18.78,-17.19,-17.16,-16.71,-13.10,-18.35,-9.61,-17.91,-10.11,-18.04,-11.18,-16.46,-13.66,-9.48,-13.05,-5.85,-12.72,-6.29,-12.21,-6.92,-10.21
2019-06-03 14:00,-18.60,-20.02,-22.47,-13.59,-23.49,-17.17,-26.00,-14.73,-24.51,-13.72,-23.45,-13.02,-22.61,-12.70,-23.65,-14.21,-24.60,-14.57,-19.24,-15.63,-16.53,-15.74,-16.55,-15.65,-16.15,-12.85
2019-06-03 15:00,-12.11,-17.99,-13.09,-9.56,-18.44,-15.94,-18.39,-14.17,-16.25,-14.43,-18.30,-9.80,-17.68,-9.02,-19.05,-10.51,-20.51,-12.04,-16.17,-13.17,-12.40,-12.17,-11.01,-10.77,-9.61,-8.64
2019-06-03 16:00,-4.44,-27.03,2.53,-9.98,-2.20,-8.13,-5.04,-13.43,-2.82,-12.02,0.75,-14.18,-1.21,-9.52,-3.41,-7.83,-6.53,-7.00,-9.55,-6.14,-7.76,-9.39,-5.19,-10.89,-4.83,-9.14
2019-06-03 17:00,-2.26,-30.59,1.57,-26.68,-0.36,-18.61,-6.32,-21.11,-4.45,-21.14,-1.48,-23.35,-4.06,-19.48,-6.17,-15.39,-9.94,-12.87,-11.12,-10.38,-12.55,-10.45,-11.57,-12.99,-9.46,-14.70
2019-06-03 18:00,4.18,-25.99,18.45,-15.40,16.69,-7.59,9.82,-8.58,11.19,-6.35,12.34,-10.29,9.27,-11.20,6.24,-7.97,3.32,-3.57,1.52,0.92,0.61,0.06,-0.09,-1.99,2.31,-4.04
2019-06-03 19:00,8.79,-22.30,16.09,-15.09,23.20,-4.42,13.59,-4.48,10.91,-1.36,11.76,-3.00,10.92,-2.18,9.80,2.07,7.32,7.93,6.28,13.04,6.75,10.47,6.86,9.26,8.10,7.72
2019-06-03 20:00,5.89,-19.96,8.64,-17.06,11.24,-11.61,8.67,-4.64,9.74,-4.36,8.72,-4.42,9.58,-0.26,8.54,3.70,7.54,9.03,6.11,9.37,5.91,7.77,6.18,7.94,6.09,7.09
2019-06-03 21:00,-3.78,-15.06,1.34,-15.26,4.83,-12.79,-0.11,-9.75,0.41,-8.58,-1.02,-9.06,1.52,-6.53,2.09,-3.59,0.31,2.36,-0.60,3.46,-0.76,4.04,0.33,2.67,0.47,1.36
2019-06-03 22:00,6.17,-11.61,10.91,-12.32,11.56,-11.63,0.92,-8.96,0.99,-8.43,0.28,-8.51,4.79,-4.42,6.36,-0.18,5.41,3.81,5.40,4.22,4.26,2.68,4.34,1.97,1.68,1.07
2019-06-03 23:00,-1.51,-21.70,-2.89,-23.11,-9.50,-15.33,-13.58,-7.72,-12.94,-8.18,-15.88,-6.06,-10.71,-8.41,-6.40,-7.48,-3.27,-6.03,-1.68,-3.44,-3.87,-2.57,-5.46,-3.61,-6.05,-4.50
2019-06-04 00:00,-5.87,-27.51,-10.23,-27.42,-14.43,-18.60,-14.57,-12.95,-15.14,-12.38,-15.46,-9.98,-15.37,-11.51,-11.27,-14.87,-7.36,-14.05,-3.65,-10.07,-3.04,-8.46,-3.17,-9.94,-5.94,-9.22
2019-06-04 01:00,-6.21,-28.95,-20.00,-29.59,-19.92,-17.37,-17.44,-14.23,-17.56,-12.60,-18.02,-8.90,-19.73,-8.32,-20.25,-9.49,-15.31,-12.53,-8.61,-9.31,-7.36,-8.56,-9.24,-9.27,-9.44,-8.49
2019-06-04 02:00,-6.79,-31.07,-12.11,-23.06,-9.97,-12.36,-11.74,-9.20,-13.66,-5.47,-14.54,-6.43,-14.13,-8.39,-12.53,-8.17,-8.69,-10.57,-4.13,-10.19,-0.72,-9.40,-2.41,-8.50,-3.51,-7.44
2019-06-04 03:00,-11.64,-34.62,-13.98,-25.00,-11.35,-14.58,-12.09,-10.23,-14.93,-6.53,-18.37,-3.30,-20.22,-4.10,-18.38,-7.96,-14.17,-8.61,-11.31,-6.51,-9.71,-8.26,-7.75,-10.22,-7.68,-9.68
2019-06-04 04:00,-14.64,-28.38,-12.61,-20.40,-8.08,-14.44,-7.45,-10.97,-5.78,-6.70,-7.47,-1.87,-11.19,-1.10,-13.74,-2.80,-11.46,-6.34,-8.44,-7.20,-7.81,-9.20,-7.64,-11.02,-9.40,-10.24
2019-06-04 05:00,-6.89,-21.68,-6.40,-21.96,-2.97,-13.82,-0.71,-10.63,1.17,-7.55,-2.07,-2.72,-5.60,-0.34,-9.56,-1.80,-7.04,-3.51,-4.12,-3.98,-4.37,-5.39,-3.72,-6.26,-5.35,-5.97
2019-06-04 06:00,5.81,-20.81,6.18,-17.50,10.86,-6.65,14.38,-3.54,16.32,0.48,15.03,2.21,12.09,4.75,6.76,5.72,3.26,4.89,3.95,1.87,4.13,1.61,2.80,0.74,1.24,1.57
2019-06-04 07:00,5.08,-15.72,6.19,-16.78,16.22,-10.09,23.47,-8.18,22.08,-4.10,20.41,2.60,17.63,5.69,13.71,5.28,14.05,3.20,12.79,3.28,11.49,3.86,11.08,3.86,12.94,4.25
2019-06-04 08:00,5.72,-9.14,9.61,-10.91,18.80,-12.82,23.76,-10.48,22.82,-3.38,21.51,1.96,18.93,3.14,15.93,1.93,11.87,-0.69,10.80,0.99,10.47,0.29,13.49,-2.12,17.45,-1.08
2019-06-04 09:00,3.12,4.24,9.72,0.81,20.61,-5.21,23.09,-3.62,21.97,0.22,19.03,2.34,17.71,1.47,13.67,4.65,10.84,7.52,12.61,5.92,14.18,4.26,14.30,4.61,13.38,4.57
2019-06-04 10:00,-6.84,1.61,-1.01,-0.47,7.63,-6.16,16.62,-9.67,16.15,-5.15,16.15,-3.59,12.90,-1.45,8.12,0.18,10.01,0.89,8.72,-0.90,10.30,-2.97,13.76,-0.81,11.48,5.10
2019-06-04 11:00,-19.27,-4.57,-13.57,-3.07,-16.61,-4.08,-7.54,-12.96,-1.55,-20.37,3.42,-14.51,7.05,-14.17,5.33,-12.35,5.72,-10.69,5.91,-8.27,2.92,-9.88,1.22,-11.26,0.09,-10.11
2019-06-04 12:00,-13.19,-11.14,-20.30,-11.26,-18.61,-10.19,-9.70,-18.08,-4.64,-19.22,0.11,-15.69,0.16,-13.51,-0.71,-10.22,-2.32,-8.06,-5.46,-7.13,-3.58,-8.39,-6.03,-6.56,-6.83,-4.70
2019-06-04 13:00,-7.89,-19.46,-14.38,-13.31,-14.47,-13.34,-19.36,-17.53,-22.11,-20.84,-17.53,-22.52,-8.44,-18.57,-3.96,-17.49,-3.23,-14.40,-2.37,-9.42,-1.95,-6.72,-1.77,-5.84,-0.88,-2.92
2019-06-04 14:00,-7.55,-16.06,-7.63,-8.32,-9.87,-13.16,-17.69,-12.12,-24.54,-9.69,-27.15,-13.90,-20.03,-14.60,-12.16,-13.87,-9.64,-14.03,-8.38,-9.77,-8.18,-7.02,-6.63,-5.06,-6.56,-2.56
2019-06-04 15:00,-6.38,-16.58,-3.93,-9.00,-7.71,-7.62,-20.12,-4.90,-29.35,-7.13,-31.09,-11.11,-25.47,-12.42,-21.14,-11.59,-18.32,-10.12,-13.09,-8.01,-10.91,-5.68,-9.71,-5.15,-7.98,-1.90
2019-06-04 16:00,-4.98,-21.48,-3.72,-13.71,-6.48,-9.16,-13.77,-0.74,-22.34,1.96,-25.41,-0.51,-23.76,-4.42,-20.24,-4.83,-16.46,-4.25,-10.37,-4.19,-6.21,-3.50,-4.70,-2.17,-3.07,1.05
2019-06-04 17:00,-1.00,-23.23,-2.84,-19.78,0.58,-12.77,-1.80,-2.96,-9.05,2.16,-11.86,1.42,-13.26,-0.71,-13.59,-1.42,-11.88,-2.00,-8.12,-2.15,-2.63,-2.56,-0.05,-1.36,1.03,-1.17
2019-06-04 18:00,-0.71,-21.60,-5.08,-17.17,-1.26,-10.88,7.24,-0.78,2.48,5.10,-0.36,5.28,-1.96,3.10,-3.39,3.04,-4.54,1.90,-1.34,1.92,2.90,-1.20,3.24,-1.32,1.99,-2.06
2019-06-04 19:00,0.75,-22.04,-4.54,-12.58,1.78,-9.46,11.62,-2.10,8.49,5.45,5.22,5.31,3.19,4.36,2.26,5.15,2.93,6.15,6.31,3.12,6.99,1.74,6.99,1.74,8.14,0.91
2019-06-04 20:00,3.21,-15.29,-3.64,-10.89,-4.01,-4.78,8.84,-0.56,13.81,9.96,10.74,12.97,8.07,11.75,5.64,11.94,4.93,13.82,5.64,11.94,7.21,10.70,7.58,11.62,8.79,10.18
2019-06-04 21:00,-2.40,-9.32,-6.74,-9.33,-5.25,-4.39,3.88,-1.77,18.95,-0.48,20.50,3.45,20.48,2.72,17.59,1.13,15.49,2.85,16.29,6.06,17.68,5.91,20.97,4.40,19.15,1.13
2019-06-04 22:00,-6.56,-6.49,-10.12,-6.71,-7.09,2.16,7.36,4.63,13.58,9.28,9.24,11.23,6.42,9.76,6.48,10.30,6.73,8.60,8.61,5.38,6.83,4.70,3.02,4.21,-0.97,2.12
2019-06-04 23:00,-13.91,-4.92,-18.95,-6.56,-16.59,-3.35,-8.62,-1.45,3.74,-5.94,4.41,-1.83,0.58,0.15,0.40,-1.13,0.96,-1.30,3.00,-4.69,0.50,-6.59,-5.73,-6.89,-7.79,-7.33
2019-06-05 00:00,-14.31,-10.81,-19.38,-14.33,-23.47,-11.37,-18.64,-4.61,-8.09,-9.69,2.71,-10.66,0.75,-5.59,0.18,-4.19,0.79,-3.00,0.49,-7.32,-0.22,-8.95,-1.19,-7.24,-3.18,-6.74
2019-06-05 01:00,-18.08,-10.26,-20.22,-9.58,-21.78,-2.13,-19.39,-0.99,-12.59,-9.12,-4.40,-12.33,-4.62,-6.39,-7.23,-5.53,-6.76,-4.17,-6.87,-5.33,-5.89,-5.49,-7.63,-6.36,-7.37,-3.81
2019-06-05 02:00,-19.42,-13.41,-25.72,-8.76,-16.05,-6.21,-17.55,-8.36,-20.39,-11.28,-17.29,-15.22,-13.78,-10.47,-16.29,-8.03,-12.59,-8.71,-9.40,-7.86,-8.74,-8.41,-8.29,-7.78,-9.14,-7.69
2019-06-05 03:00,-20.13,-15.04,-24.24,-8.47,-17.54,-7.22,-21.79,-6.79,-21.75,-8.12,-24.67,-8.79,-23.87,-11.06,-20.87,-9.86,-17.98,-6.72,-14.21,-7.27,-13.63,-7.12,-13.91,-8.02,-10.55,-5.89
2019-06-05 04:00,-15.71,-12.94,-13.68,-7.34,-11.65,-8.77,-15.68,-4.45,-15.90,-4.82,-18.18,-6.35,-20.63,-6.48,-18.69,-5.97,-19.20,-4.45,-15.91,-5.96,-12.64,-5.00,-12.96,-6.53,-10.89,-5.36
2019-06-05 05:00,-2.35,-13.03,-7.35,-7.42,-2.45,-8.72,-0.90,-12.65,-3.31,-8.63,-5.12,-7.25,-7.39,-7.64,-7.64,-5.54,-7.83,-3.62,-8.46,-7.51,-8.47,-10.20,-5.61,-10.48,-0.85,-12.84
2019-06-05 06:00,-4.37,-16.36,-7.87,-11.70,0.32,-14.91,-1.21,-11.49,-2.03,-6.02,-4.15,-5.44,-5.82,-5.37,-4.87,-5.84,-3.36,-6.06,-4.16,-8.54,-3.89,-6.82,-2.50,-6.97,1.05,-11.41
2019-06-05 07:00,7.44,-8.58,9.03,-7.96,15.93,-12.55,10.37,-15.77,7.91,-11.15,8.47,-5.83,7.38,-2.08,6.64,-1.25,7.93,-1.83,6.83,-1.19,6.61,0.82,6.39,0.86,8.97,-3.01
2019-06-05 08:00,11.19,-9.46,11.73,-8.38,12.87,-12.32,7.38,-11.08,11.77,-4.23,14.90,-0.82,12.67,1.38,8.89,4.31,8.73,4.17,8.41,4.19,7.14,4.68,6.39,4.79,6.74,1.88
2019-06-05 09:00,17.49,-11.41,12.94,-9.82,9.78,-14.69,5.98,-17.14,5.26,-12.47,10.41,-5.73,11.73,-0.94,12.18,-0.30,13.06,1.07,9.94,1.90,9.87,2.19,8.43,4.09,8.77,4.80
2019-06-05 10:00,17.41,-10.71,13.25,-7.88,7.69,-5.62,-0.24,-10.82,-1.57,-11.28,5.29,-5.94,8.84,-2.94,12.01,-3.55,12.67,-2.55,10.61,1.35,9.04,4.56,7.02,6.72,7.27,2.64
2019-06-05 11:00,12.03,-8.72,7.13,-5.05,5.47,-2.69,-2.66,-4.01,-0.66,-1.42,4.77,2.30,4.70,4.14,6.11,3.48,6.48,4.82,7.26,8.54,6.14,8.86,4.84,6.35,2.87,6.34
2019-06-05 12:00,-1.27,-8.51,-8.55,-11.88,-10.01,-7.92,-16.03,-7.85,-18.17,-8.73,-9.12,-5.82,-6.47,-2.12,-6.04,-1.80,-5.08,-3.10,-5.53,-1.77,-5.52,-1.04,-6.67,-1.76,-8.03,-1.71
2019-06-05 13:00,-8.03,-18.15,-9.59,-15.77,-8.93,-10.84,-20.78,-2.39,-19.65,-3.12,-12.47,-3.71,-6.21,-1.95,-6.90,0.66,-6.67,-1.76,-5.37,-1.21,-5.05,-1.64,-3.93,-1.56,-5.93,-1.05
2019-06-05 14:00,-10.08,-19.01,-11.87,-17.31,-22.38,-7.67,-23.36,-3.17,-20.51,-1.07,-16.47,-3.42,-11.73,-4.55,-9.70,-4.01,-10.25,-4.67,-8.96,-2.88,-6.34,-2.61,-2.39,-4.66,-2.70,-1.13
2019-06-05 15:00,-19.08,-17.04,-23.10,-12.41,-25.42,1.87,-25.05,5.17,-27.37,2.59,-24.07,-1.29,-17.94,-2.57,-17.01,-2.94,-16.61,-5.63,-14.73,-4.93,-13.37,-4.98,-11.12,-4.49,-9.43,-1.87
2019-06-05 16:00,-20.75,-26.79,-22.84,-22.79,-19.92,-8.78,-19.48,-6.91,-24.26,-8.79,-24.70,-10.25,-21.33,-13.60,-17.81,-14.43,-16.61,-13.49,-16.77,-14.05,-13.28,-15.09,-10.97,-15.62,-9.56,-16.28
2019-06-05 17:00,-14.71,-19.50,-16.48,-17.49,-11.90,-9.76,-7.58,-6.14,-12.15,-5.69,-16.23,-3.15,-18.97,-3.36,-18.27,-5.24,-14.16,-7.88,-13.00,-9.12,-12.92,-5.90,-11.77,-7.14,-9.96,-8.11
2019-06-05 18:00,-5.29,-14.43,-7.85,-13.76,-1.61,-8.39,5.74,-6.45,1.78,-3.98,-3.10,0.01,-5.69,0.77,-7.84,-1.66,-8.43,-4.50,-6.92,-5.14,-5.65,-5.22,-3.19,-2.81,-0.78,-3.31
2019-06-05 19:00,-5.40,-15.60,-3.77,-19.41,4.27,-16.56,11.77,-14.78,7.40,-13.14,5.03,-9.64,1.40,-5.32,0.35,-4.05,-2.06,-5.51,-5.58,-7.06,-5.76,-7.94,-2.86,-7.58,-0.06,-8.39
2019-06-05 20:00,4.55,-10.18,7.65,-11.32,14.19,-7.52,22.73,-11.27,20.00,-9.92,15.32,-8.26,14.46,-5.80,13.54,-3.87,10.28,-1.32,6.92,3.17,5.26,3.56,4.79,1.06,6.48,-1.81
2019-06-05 21:00,-0.36,-1.75,-6.18,-5.56,0.50,-6.59,14.90,-7.85,18.28,-4.58,15.28,-1.45,11.61,0.69,10.19,3.73,8.90,5.45,5.45,7.96,1.99,8.90,1.70,9.24,3.16,5.28
2019-06-05 22:00,9.57,2.94,1.37,0.67,-1.80,-4.92,9.77,-8.38,15.65,-7.55,15.04,-4.09,13.33,-0.72,10.94,3.61,8.73,5.72,5.57,8.30,3.08,11.05,2.43,8.40,2.13,5.63
2019-06-05 23:00,-1.14,-3.92,-6.40,-3.55,-6.89,-11.13,-0.20,-12.57,7.44,-14.07,6.04,-14.64,3.89,-10.04,2.79,-3.92,1.69,0.24,-2.56,2.63,-5.60,3.18,-6.10,0.77,-8.31,-2.20
2019-06-06 00:00,-19.96,-5.48,-9.74,-1.12,-12.05,1.78,-13.76,0.40,-10.56,-4.65,-2.97,-7.92,-3.17,-9.53,-7.54,-5.51,-8.85,1.39,-8.68,8.57,-10.31,11.24,-13.51,11.22,-13.73,8.89
2019-06-06 01:00,-22.78,-5.40,-11.61,-6.17,-16.31,0.66,-21.52,-1.14,-21.94,-9.73,-17.33,-17.40,-13.98,-23.04,-13.88,-21.05,-10.39,-15.47,-8.33,-6.44,-6.98,-2.57,-7.13,-1.57,-8.18,-1.54
2019-06-06 02:00,-15.43,-16.38,-10.64,-16.88,-13.65,-13.33,-16.79,-17.47,-21.70,-22.39,-21.89,-28.33,-17.89,-30.17,-16.85,-25.86,-11.90,-20.73,-11.01,-16.25,-11.04,-12.23,-8.83,-9.26,-11.15,-9.46
2019-06-06 03:00,-9.17,-16.59,-8.04,-19.29,-11.48,-17.62,-18.37,-23.26,-26.49,-25.00,-25.93,-27.54,-25.19,-26.00,-20.42,-22.15,-16.46,-18.73,-16.77,-15.60,-16.92,-11.92,-16.31,-8.34,-15.11,-7.41
2019-06-06 04:00,-9.12,-17.93,-11.51,-17.11,-14.87,-16.55,-25.35,-14.45,-33.20,-9.39,-36.89,-9.54,-31.62,-13.42,-27.48,-14.60,-22.48,-9.66,-19.79,-3.78,-16.78,-4.23,-15.24,-6.92,-16.84,-8.69
2019-06-06 05:00,-6.61,-18.81,-10.63,-19.26,-15.13,-13.20,-20.20,-3.79,-27.65,-0.27,-30.27,-2.10,-28.24,-3.12,-23.58,-5.51,-19.40,-6.06,-16.75,-4.32,-17.05,-2.02,-18.10,0.39,-13.63,-0.08
2019-06-06 06:00,7.83,-22.96,2.20,-21.66,-3.83,-14.46,-5.67,-3.98,-12.04,0.54,-16.99,0.48,-18.50,1.52,-15.34,2.46,-11.55,3.78,-8.84,2.94,-6.88,0.98,-3.30,-0.04,0.14,0.24
2019-06-06 07:00,6.94,-23.92,2.11,-21.68,-0.26,-13.10,1.18,-4.45,-5.62,-0.24,-9.59,4.60,-13.67,6.73,-12.75,8.73,-9.71,8.19,-9.40,6.62,-6.31,2.37,-0.79,-0.93,4.35,-4.33
2019-06-06 08:00,6.68,-29.58,4.26,-24.73,4.93,-14.73,7.07,-4.85,3.60,1.26,-0.41,5.48,-1.30,6.90,-0.22,5.94,0.16,6.04,0.99,4.09,0.95,3.04,4.14,0.37,7.77,-3.95
2019-06-06 09:00,5.92,-23.98,8.39,-16.09,12.01,-5.93,10.82,1.72,8.83,7.30,6.73,11.71,8.06,12.16,7.24,11.74,6.92,10.21,6.33,10.88,5.78,8.66,6.95,6.18,7.30,5.65
2019-06-06 10:00,7.16,-18.48,5.17,-11.36,7.69,-2.10,5.91,5.80,5.36,9.48,10.47,11.25,11.88,13.38,10.04,14.86,9.26,15.06,10.45,12.90,9.62,11.33,6.69,9.11,7.22,7.91
2019-06-06 11:00,2.58,-16.80,-0.60,-11.43,0.86,-2.46,5.92,3.43,3.35,9.26,1.01,11.85,2.99,10.62,5.97,10.68,6.39,13.38,6.50,16.51,6.16,14.66,5.17,12.54,3.14,12.00
2019-06-06 12:00,-9.18,-17.32,-8.83,-12.78,-7.05,-7.76,-7.16,-6.96,-2.54,-0.57,-3.69,5.75,-4.44,7.41,-3.73,7.08,-1.82,9.24,-2.15,12.05,-2.91,12.57,-4.15,11.01,-6.47,8.84
2019-06-06 13:00,-18.93,-24.65,-18.66,-19.41,-18.03,-12.00,-18.48,-11.50,-12.83,-11.35,-11.24,-2.87,-11.86,1.42,-9.27,0.65,-5.65,-0.15,-6.49,4.59,-7.33,5.82,-8.72,4.42,-10.92,4.15
2019-06-06 14:00,-26.54,-12.70,-23.09,-16.34,-23.30,-9.67,-25.51,-6.02,-21.95,-9.32,-16.64,-5.53,-12.84,-2.67,-11.55,-1.71,-10.91,-3.71,-7.23,-2.01,-7.09,0.20,-8.86,0.25,-10.89,1.67